Location: Agadir Mansour Mhndou
(31.2424°N, 8.7730°W)
Time: 05:39:24
(UTC+00:00)

USA 267 - Pass Details

Date: 16 October 2021
Orbit: 1101 x 1107 km, 123.0° (Epoch: 27 November)

Event Time Altitude Azimuth Distance (km) Brightness Sun altitude
Rises 18:26:13 0° 140° (SE) 3,904 5.8 -5.9°
Reaches altitude 10° 18:28:41 10° 141° (SE) 2,948 5.2 -6.5°
Maximum altitude 18:35:13 81° 229° (SW) 1,114 3.4 -7.9°
Drops below altitude 10° 18:41:46 10° 317° (NW) 2,957 6.1 -9.2°
Sets 18:44:15 0° 318° (NW) 3,917 6.7 -9.8°
